Wind_Speed
24 24 23 22 21 20 19 18 17 16 17 19 20 22 23 23 24 25 26 27 27 27 27 27 27 26 27 26 25 25 25 25 26 26 25 25 25 26 26 28 29 30 31
25 25 25 23 22 21 20 20 18 19 19 21 24 26 27 27 29 30 31 32 32 32 32 31 31 30 30 29 29 28 28 28 29 29 28 28 28 29 30 32 33 34 35
25 25 26 25 24 22 23 23 22 23 23 25 27 29 31 32 34 34 35 36 37 36 36 34 34 32 32 32 32 31 31 31 31 31 32 32 31 32 33 35 37 39 40
27 28 27 27 26 26 26 26 25 25 27 29 30 32 34 36 37 37 38 38 38 38 38 38 36 36 37 36 34 34 34 34 35 36 36 36 37 37 38 40 42 43 45
28 29 29 30 30 29 29 29 30 31 33 33 33 34 36 38 39 38 38 37 37 37 38 38 38 39 39 37 37 38 38 39 39 40 40 41 42 43 44 45 46 48 50
29 30 31 32 33 33 33 33 35 35 35 36 36 38 39 40 40 39 39 39 39 39 40 41 42 42 41 41 41 41 42 43 43 44 45 46 47 48 49 50 51 53 55
32 33 33 34 36 36 36 36 37 38 39 40 40 41 41 41 41 40 40 40 41 41 42 44 45 44 45 45 44 45 46 47 47 48 49 51 52 53 54 55 56 57 58
35 35 36 37 38 38 38 38 39 40 42 42 42 42 41 41 41 42 42 43 43 44 44 45 46 45 46 47 48 48 49 51 52 53 54 56 57 58 59 59 60 60 61
35 37 38 39 40 40 40 40 40 41 41 42 42 42 42 42 42 43 44 44 45 46 47 48 48 49 50 51 52 53 54 55 56 58 59 60 61 62 62 62 62 63 63
36 36 38 39 39 39 39 40 41 40 40 40 40 41 42 43 44 45 46 47 48 49 49 50 51 53 54 56 57 58 58 59 60 61 61 62 62 62 63 63 64 64 64
36 37 37 37 37 38 39 40 40 39 39 40 40 41 43 44 45 46 48 49 51 52 53 55 56 57 58 59 60 61 62 62 62 62 62 63 63 64 64 64 64 63 63
35 36 36 36 37 38 38 37 37 38 39 40 41 42 43 44 46 48 50 52 53 55 56 58 60 61 61 62 62 63 63 63 64 64 65 65 64 64 63 63 62 61 60
31 34 35 34 35 35 35 35 36 37 39 40 41 42 44 46 48 50 52 54 56 58 59 60 61 62 63 64 64 64 64 65 65 65 64 64 64 63 61 60 59 59 58
30 31 32 33 34 34 34 34 36 38 39 41 43 45 47 49 50 53 54 55 57 59 60 61 62 63 64 64 64 64 64 64 64 64 63 63 61 60 59 58 57 56 55
28 29 30 30 31 32 34 35 37 39 41 43 45 47 48 50 52 53 54 56 57 58 59 60 61 62 63 63 63 63 63 62 62 62 61 60 59 57 56 55 54 53 52
28 28 29 29 30 32 34 36 38 40 41 43 45 46 48 49 51 51 53 55 56 57 58 59 59 60 61 61 61 60 60 59 59 58 57 55 54 52 51 50 50 49 47
29 28 28 30 30 32 34 35 37 39 41 43 45 46 48 49 50 51 52 53 54 55 56 56 57 58 58 57 57 56 56 55 54 52 51 49 48 47 46 45 44 43 41
30 29 29 29 30 31 32 34 36 38 40 42 43 44 46 48 49 49 50 51 52 52 53 54 54 55 54 54 53 52 51 50 49 47 45 43 42 40 39 38 37 35 33
26 26 27 27 29 30 31 33 35 36 38 40 41 42 43 44 45 46 48 49 50 51 51 51 51 51 51 50 49 47 45 43 41 39 36 35 33 32 30 28 27 26 24
26 26 27 27 29 31 32 32 34 35 37 38 39 39 41 42 43 45 46 48 48 48 48 47 45 44 43 43 41 39 37 34 32 29 27 26 24 23 21 19 18 17 16
24 25 27 28 29 30 31 31 33 34 34 35 36 37 38 40 41 43 43 43 42 41 39 38 37 35 34 33 31 28 25 23 21 20 18 17 15 14 12 12 11 11 11
23 25 26 27 27 28 28 29 30 31 31 32 33 34 35 36 38 38 37 36 34 32 31 30 28 27 25 22 19 17 15 14 13 12 10 8 7 7 7 7 7 7 8
23 24 24 25 25 26 27 28 28 28 29 29 30 31 32 33 33 32 30 29 28 26 25 23 21 19 17 15 12 10 9 7 7 6 5 4 4 5 5 6 6 7 8
20 21 21 22 23 24 25 25 25 25 25 26 27 28 28 29 28 27 25 24 23 22 20 19 17 15 13 10 8 7 6 5 5 5 5 5 6 6 7 7 8 9 10
17 18 19 21 22 22 22 22 22 22 22 23 24 24 24 24 23 23 22 20 19 18 17 16 14 12 10 8 7 6 6 6 7 7 8 8 8 8 9 9 10 11 12
16 16 17 18 19 20 20 20 19 19 20 20 20 20 20 19 20 19 18 17 16 15 14 13 12 11 9 8 8 8 8 9 9 10 10 10 10 10 11 11 12 13 13
Wind_Direction
245 249 252 251 250 243 235 234 240 252 266 274 279 283 286 288 289 291 292 291 290 292 292 293 294 297 298 299 302 302 302 303 304 304 302 299 298 297 295 293 291 289 288
247 251 252 254 256 255 248 246 248 254 262 270 276 281 283 286 288 289 289 288 288 289 288 288 290 292 292 294 297 298 300 300 300 299 298 297 295 294 293 291 289 288 288
250 253 256 257 259 263 261 255 258 260 265 269 274 277 280 283 285 286 286 286 286 286 286 286 288 288 290 293 295 297 298 298 297 295 295 293 291 290 290 289 289 288 287
251 256 260 262 267 267 267 264 265 268 269 271 273 276 279 281 283 284 284 284 285 285 286 287 287 287 290 291 293 295 296 296 295 294 293 292 291 289 289 288 287 287 286
253 257 260 263 266 268 271 272 272 272 271 272 273 276 278 279 281 282 282 283 286 287 287 289 291 292 292 291 292 294 294 296 294 293 292 291 290 289 289 288 287 286 285
253 256 260 263 265 267 271 273 274 276 275 277 278 279 279 280 281 281 282 283 284 285 286 288 290 291 291 292 293 293 293 294 294 292 291 291 290 289 288 287 286 285 285
251 255 258 261 264 267 270 272 274 276 278 280 280 279 279 279 280 281 282 282 283 284 287 288 289 289 291 292 292 293 292 292 292 291 291 290 290 289 289 288 287 285 285
250 254 258 261 264 267 269 270 273 274 276 277 277 277 277 277 278 279 280 282 283 285 287 287 288 290 291 292 292 292 292 291 291 291 290 290 290 290 289 288 287 286 286
252 255 258 261 264 267 269 271 273 274 275 276 276 276 277 277 278 279 281 282 284 285 286 287 287 289 290 290 290 291 290 290 290 290 290 290 290 290 289 289 288 287 286
250 254 257 261 263 265 268 270 272 273 275 275 275 276 277 278 279 280 282 283 285 286 287 288 288 289 289 289 289 289 289 290 290 290 290 290 290 290 289 289 288 288 288
253 254 256 258 261 263 265 268 270 270 271 273 274 276 277 278 280 281 282 284 285 286 287 287 288 289 289 288 288 289 289 289 290 290 290 290 290 290 290 290 289 289 289
256 256 257 258 261 263 264 266 267 269 271 273 275 277 278 279 280 281 283 284 285 286 286 287 288 288 288 288 289 290 290 290 290 290 290 290 290 290 290 290 289 289 289
262 257 257 260 264 264 264 266 268 271 274 275 277 278 279 280 281 282 283 284 284 285 286 287 288 289 289 289 290 290 290 290 290 290 290 290 290 290 289 289 288 289 289
267 262 260 261 262 263 266 269 272 274 276 277 278 279 280 280 281 282 283 284 286 287 287 288 288 289 289 289 289 289 289 289 289 289 289 289 289 289 288 288 288 289 289
271 268 265 263 264 267 270 273 275 277 278 279 279 280 281 282 283 284 285 286 287 288 288 288 288 288 288 288 288 288 289 289 289 289 289 289 288 288 288 288 288 288 289
271 270 270 270 270 272 274 275 277 278 279 280 281 283 285 286 287 287 288 288 288 289 289 289 289 289 288 288 288 289 289 289 289 289 289 289 289 288 288 288 288 288 289
280 279 279 279 279 279 279 280 281 281 282 283 285 286 287 288 289 290 291 291 291 291 290 290 290 289 289 289 289 289 289 289 289 289 289 289 288 289 289 289 289 289 289
284 282 284 283 282 283 282 282 282 283 285 286 288 289 290 291 292 292 292 293 293 292 292 291 291 291 290 290 290 290 290 290 289 289 288 288 288 288 288 289 290 291 292
285 285 286 288 286 284 285 287 288 289 291 292 294 295 295 296 296 295 295 295 294 294 294 293 292 292 291 290 290 290 290 290 290 290 289 288 289 290 291 293 294 295 298
283 287 289 288 288 287 288 290 293 295 296 296 297 298 298 298 299 299 298 298 297 297 297 296 295 294 293 292 291 290 290 290 290 290 290 291 292 293 294 295 297 301 306
285 286 288 289 289 292 294 295 297 298 299 300 301 302 302 303 303 303 303 303 303 302 302 301 300 299 297 296 295 293 292 292 293 294 295 296 297 298 300 303 308 314 320
287 288 291 292 293 295 297 298 299 300 302 303 304 305 307 308 309 310 310 310 311 310 309 308 308 307 306 305 304 302 300 301 302 304 306 309 313 318 323 330 335 339 343
289 291 293 295 297 299 300 301 302 304 305 307 309 311 313 315 316 318 319 319 319 318 318 319 319 319 319 319 319 319 321 324 329 334 344 354 360 3 9 14 14 11 6
294 295 297 299 300 302 303 305 307 309 311 312 315 317 319 322 324 325 327 327 327 328 328 330 331 332 335 339 345 352 358 7 20 32 40 43 48 49 46 41 35 28 22
299 300 303 304 306 307 308 310 312 313 315 318 321 324 327 330 332 334 335 335 336 337 339 341 343 348 355 3 13 25 38 49 57 60 65 69 66 60 53 48 42 36 29
305 308 310 311 312 313 313 315 317 318 320 323 327 330 334 337 338 340 342 345 346 349 352 357 3 11 20 29 40 52 60 64 69 71 73 70 66 63 58 50 42 36 30
Height
5864 5866 5868 5870 5870 5870 5871 5873 5874 5875 5875 5874 5874 5874 5874 5873 5872 5871 5870 5868 5867 5865 5864 5862 5860 5859 5857 5856 5854 5852 5851 5849 5847 5845 5843 5840 5838 5835 5832 5830 5827 5825 5823
5861 5863 5864 5865 5866 5866 5866 5867 5868 5869 5870 5869 5868 5868 5867 5866 5865 5864 5863 5861 5859 5857 5856 5854 5852 5851 5850 5848 5847 5845 5843 5842 5840 5839 5836 5834 5832 5829 5826 5823 5821 5818 5815
5855 5857 5858 5860 5860 5861 5861 5861 5862 5862 5863 5863 5863 5862 5860 5859 5858 5856 5854 5852 5850 5848 5847 5845 5844 5843 5841 5840 5839 5837 5835 5834 5832 5830 5829 5827 5824 5822 5819 5816 5813 5809 5806
5851 5853 5854 5855 5856 5856 5855 5855 5856 5857 5857 5857 5856 5855 5853 5852 5850 5848 5846 5844 5841 5840 5838 5836 5835 5834 5832 5831 5830 5828 5826 5825 5823 5821 5819 5817 5815 5813 5810 5807 5803 5800 5796
5845 5847 5848 5849 5850 5850 5851 5851 5851 5851 5850 5849 5848 5847 5846 5844 5842 5840 5838 5836 5834 5832 5830 5828 5827 5825 5823 5822 5820 5819 5817 5815 5813 5811 5809 5807 5804 5801 5799 5796 5792 5788 5783
5840 5840 5841 5842 5843 5844 5845 5845 5844 5843 5841 5841 5840 5839 5837 5836 5833 5831 5830 5828 5826 5824 5822 5820 5818 5816 5814 5812 5811 5809 5807 5805 5802 5800 5797 5795 5792 5789 5786 5783 5779 5775 5770
5834 5834 5835 5836 5837 5837 5838 5838 5838 5836 5835 5834 5833 5831 5829 5828 5826 5824 5822 5820 5818 5816 5814 5812 5809 5806 5804 5802 5800 5798 5796 5793 5790 5787 5784 5781 5778 5774 5771 5768 5764 5760 5755
5827 5828 5829 5829 5830 5830 5830 5830 5830 5829 5827 5826 5824 5823 5821 5819 5817 5815 5814 5811 5809 5807 5805 5802 5799 5796 5794 5792 5789 5786 5783 5780 5777 5774 5770 5767 5763 5759 5755 5751 5748 5743 5739
5820 5821 5821 5822 5821 5821 5821 5821 5821 5820 5819 5817 5816 5814 5812 5810 5808 5806 5804 5802 5799 5797 5794 5792 5789 5786 5783 5780 5777 5774 5770 5767 5763 5759 5755 5751 5747 5742 5738 5734 5730 5726 5722
5812 5813 5813 5814 5813 5813 5813 5812 5812 5811 5810 5808 5807 5805 5803 5801 5799 5797 5795 5792 5789 5786 5784 5781 5777 5774 5771 5767 5764 5760 5756 5752 5748 5744 5739 5735 5730 5725 5720 5715 5711 5707 5703
5803 5804 5805 5805 5805 5805 5805 5804 5803 5802 5801 5799 5798 5796 5794 5792 5790 5787 5784 5782 5779 5775 5772 5769 5765 5761 5757 5753 5749 5745 5741 5737 5732 5727 5723 5718 5713 5708 5703 5698 5692 5688 5684
5795 5796 5797 5797 5797 5797 5796 5795 5795 5794 5792 5791 5789 5787 5785 5782 5780 5777 5773 5770 5767 5763 5760 5756 5751 5747 5742 5738 5734 5729 5725 5720 5715 5710 5706 5701 5696 5691 5686 5680 5675 5670 5666
5786 5787 5788 5788 5788 5788 5787 5787 5786 5785 5783 5781 5779 5777 5775 5772 5769 5765 5762 5759 5755 5751 5746 5742 5737 5732 5727 5723 5718 5713 5708 5703 5698 5693 5688 5683 5679 5674 5669 5664 5659 5655 5650
5779 5779 5779 5779 5779 5779 5778 5778 5777 5776 5774 5772 5769 5767 5764 5760 5757 5753 5750 5746 5741 5737 5732 5727 5722 5717 5712 5707 5702 5696 5691 5686 5681 5676 5671 5667 5662 5657 5653 5648 5644 5640 5636
5772 5771 5771 5771 5771 5770 5770 5769 5768 5766 5764 5761 5758 5755 5752 5748 5744 5740 5736 5732 5727 5723 5718 5712 5707 5701 5696 5690 5685 5680 5675 5669 5664 5659 5655 5650 5645 5641 5637 5633 5629 5626 5622
5764 5763 5763 5762 5762 5761 5761 5759 5757 5755 5753 5750 5747 5743 5740 5736 5732 5727 5723 5718 5713 5708 5702 5697 5691 5685 5680 5674 5669 5663 5658 5653 5649 5644 5639 5635 5630 5626 5622 5618 5615 5612 5609
5756 5755 5755 5754 5754 5753 5751 5749 5747 5744 5742 5738 5735 5731 5728 5723 5719 5714 5709 5704 5699 5693 5687 5681 5675 5669 5663 5658 5653 5648 5643 5638 5633 5629 5625 5620 5616 5613 5609 5606 5602 5600 5597
5749 5748 5747 5746 5745 5743 5741 5739 5737 5734 5731 5727 5724 5719 5715 5711 5706 5701 5696 5690 5684 5678 5672 5666 5659 5653 5647 5642 5637 5632 5628 5624 5619 5615 5611 5608 5604 5601 5598 5595 5593 5590 5588
5742 5740 5739 5738 5736 5734 5732 5729 5727 5724 5720 5717 5713 5708 5703 5698 5693 5688 5682 5676 5670 5664 5657 5651 5644 5638 5633 5627 5623 5619 5614 5610 5607 5603 5600 5597 5594 5592 5590 5588 5585 5583 5581
5734 5733 5731 5729 5728 5725 5723 5720 5717 5714 5710 5706 5702 5697 5692 5687 5681 5675 5669 5663 5656 5649 5643 5636 5630 5624 5619 5614 5610 5606 5603 5599 5596 5594 5592 5590 5588 5586 5584 5582 5581 5579 5577
5727 5726 5724 5722 5719 5717 5714 5711 5708 5704 5700 5696 5691 5687 5682 5676 5670 5663 5657 5650 5643 5637 5630 5624 5619 5613 5608 5603 5600 5597 5594 5592 5589 5588 5586 5585 5583 5582 5581 5579 5578 5576 5574
5720 5718 5716 5714 5712 5709 5706 5703 5699 5696 5691 5687 5682 5678 5672 5666 5660 5653 5646 5640 5633 5627 5622 5616 5611 5605 5600 5597 5593 5591 5589 5587 5586 5584 5583 5582 5581 5580 5579 5578 5576 5575 5573
5714 5712 5710 5707 5704 5701 5698 5695 5692 5688 5684 5679 5674 5669 5664 5658 5651 5645 5638 5632 5626 5621 5615 5610 5605 5601 5597 5593 5590 5588 5587 5585 5584 5583 5582 5582 5581 5580 5579 5578 5576 5575 5573
5707 5705 5703 5700 5698 5695 5691 5688 5684 5680 5676 5672 5667 5662 5656 5650 5645 5639 5633 5627 5622 5617 5612 5607 5603 5599 5595 5592 5590 5588 5586 5585 5584 5584 5583 5582 5581 5581 5580 5579 5578 5576 5574
5702 5700 5697 5694 5691 5688 5685 5681 5678 5674 5670 5666 5661 5656 5651 5646 5640 5635 5630 5624 5619 5615 5610 5606 5602 5598 5595 5593 5590 5589 5588 5587 5586 5585 5585 5584 5583 5583 5582 5581 5579 5577 5575
5697 5695 5692 5689 5686 5682 5679 5675 5672 5669 5665 5661 5657 5652 5647 5643 5638 5633 5628 5623 5619 5614 5610 5606 5602 5599 5596 5594 5592 5591 5590 5589 5588 5588 5587 5587 5586 5585 5585 5583 5581 5579 5577